Home   Weather   Boston   Past weeks

Flag for USA Past Weather in Boston, Massachusetts, USA — Yesterday and Last 2 Weeks

Now
74 °F

Cloudy.


Feels Like: 76 °F
Forecast: 60 / 75 °F
Wind: 12 mph from Northwest

Location: Logan International Airport

Current Time: May 20, 2018 at 7:21:54 pm

Latest Report: May 20, 2018 at 6:54 pm


Visibility: 10 mi

Pressure: 29.89 "Hg

Humidity: 67%

Dew Point: 62 °F

Location of BostonLocation

Past Weather in Boston — Graph

°F

Boston Temperature Yesterday

Maximum temperature yesterday: 54 °F (at 9:30 pm)
Minimum temperature yesterday: 47 °F (at 2:54 am)
Average temperature yesterday: 51 °F

High & Low Weather Summary for the Past Weeks

 TemperatureHumidityPressure
High84 °F (May 15, 2:54 pm)100% (May 6, 11:54 pm)30.44 "Hg (May 6, 11:54 pm)
Low45 °F (May 8, 6:54 am)16% (May 11, 5:54 pm)29.67 "Hg (May 15, 3:54 pm)
Average56 °F80%30.07 "Hg
* Reported May 5 5:54 pm — May 20 5:54 pm, Boston. Weather by CustomWeather, © 2018

Note: Actual official high and low records may vary slightly from our data, if they occured in-between our weather recording intervals... More about our weather records

Advertising

Boston Weather History for the Previous 24 Hours

Scroll right to see more
 ConditionsComfort  
Time TempWeatherWind HumidityBarometerVisibility
5:54 pm
Sun, May 20
77 °FCloudy.10 mph64%29.85 "Hg10 mi
4:54 pm75 °FCloudy.14 mph76%29.84 "Hg10 mi
3:54 pm75 °FLight rain. Overcast.18 mph76%29.84 "Hg10 mi
2:54 pm79 °FMore clouds than sun.14 mph62%29.82 "Hg10 mi
1:54 pm80 °FScattered clouds.14 mph60%29.82 "Hg10 mi
12:54 pm78 °FBroken clouds.18 mph66%29.83 "Hg10 mi
11:54 am74 °FPartly sunny.17 mph79%29.84 "Hg10 mi
10:54 am73 °FOvercast.16 mph79%29.85 "Hg10 mi
10:07 am71 °FOvercast.18 mph84%29.86 "Hg10 mi
9:30 am70 °FOvercast.17 mph87%29.87 "Hg10 mi
8:54 am68 °FOvercast.16 mph90%29.88 "Hg10 mi
7:54 am68 °FOvercast.17 mph90%29.88 "Hg10 mi
6:54 am66 °FPartly sunny.14 mph93%29.89 "Hg10 mi
6:19 am64 °FPartly sunny.13 mph97%29.90 "Hg10 mi
5:54 am63 °FPartly sunny.12 mph97%29.90 "Hg10 mi
4:54 am63 °FLow clouds.13 mph93%29.92 "Hg10 mi
3:54 am60 °FLow clouds.8 mph96%29.95 "Hg10 mi
3:28 am57 °FLight rain. Mostly cloudy.5 mph100%29.97 "Hg9 mi
3:13 am56 °FMostly cloudy.5 mph100%29.97 "Hg9 mi
2:54 am55 °FFog.3 mph100%29.96 "Hg1 mi
2:31 am55 °FLight rain. Fog.3 mph100%29.98 "Hg1 mi
2:00 am54 °FLight rain. Fog.6 mph100%30.00 "Hg1 mi
1:01 am54 °FLight rain. Fog.6 mph100%30.04 "Hg1 mi
11:54 pm
Sat, May 19
54 °FLight rain. Fog.3 mph100%30.06 "Hg1 mi
11:43 pm54 °FLight rain. Fog.No wind100%30.07 "Hg1 mi
10:54 pm54 °FFog.No wind93%30.07 "Hg1 mi
9:54 pm54 °FFog.3 mph97%30.10 "Hg1 mi
9:30 pm54 °FFog.No wind93%30.11 "Hg1 mi
8:54 pm53 °FFog.No wind96%30.11 "Hg1 mi
7:54 pm51 °FLight rain. Fog.No wind100%30.13 "Hg1 mi
7:06 pm51 °FFog.10 mph96%30.16 "Hg1 mi
Weather by CustomWeather, © 2018

See weather overview